COSMOS 2251 DEB, 34343

Orbit data source: Space-Track

COSMOS 2251 DEB, 34343 is space debris in LEO originally from a launch on Wed, 16 Jun 1993 UTC launched from the Plesetsk Missile And Space Complex (PKMTR). The debris from Iridium 33, an American commercial communications satellite, has been tracked extensively since its accidental collision with the defunct Russian satellite Cosmos 2251 in 2009. This event, occurring at high speed in low Earth orbit (LEO), generated thousands of pieces of space debris, significantly increasing the risk of further collisions. The Iridium 33 debris cloud has impacted space traffic management and orbital debris mitigation strategies, making it a subject of ongoing study in space situational awareness.

Loading next visibility...
Identifier
34343, 1993-036PR
Orbit
LEO
Country
Flag of CISCIS
Related business
Manufacturer
Unknown
Mission
Spacecraft
Bus & Motor
Unknown
Mass
Unknown
Launch date (UTC)
1993-06-16 (33 years ago)
Launch vehicle
Unknown
Launch site
Plesetsk Missile And Space Complex (PKMTR)
Object type
Payload
Rocket body
Debris
Shape & HBR
Unknown shape, 0.1 m
Radar Cross Section
Medium (>0.1 m² and <1 m²)

Expand to show TLE details & history
Last TLE update: 7 hours ago

TLE from 7 hours ago
0 COSMOS 2251 DEB
1 34343U 93036PR  26236.66136712  .00004999  00000-0  77523-3 0  9997
2 34343  74.0197 313.4748 0017897 168.6039 349.7966 14.73316539924801
Epoch: 2026-08-24T15:52Z
TLE epoch observation values (Epoch: 2026-08-24T15:52:22.119Z)
Latitude
20.77446°
Longitude
-83.76005°
Altitude
640.417 km
Speed
7.546 km/s
True Right ascension
08h 29m 05s
True Declination
20° 39' 32"
Sunlit
Object was in daylight at epoch
Visualization orbit readout
Latitude
Unknown
Longitude
Unknown
Altitude
Unknown
Speed
Unknown
Apparent Right ascension
Unknown
Apparent Declination
Unknown
Sunlit
N/A
Visualization observer readout
Local Sidereal Time
13:48:24
Azimuth
Unknown
Elevation
Unknown
Doppler factor
Unknown
Orbital elements
Apogee altitude
660.659 km
Perigee altitude
635.51 km
Semi-major axis
7,026.222 km
Eccentricity
0.00179
Inclination
74.0197°
RAAN
313.4748°
Arg. of periapsis
168.6039°
True anomaly
349.76019°
Mean anomaly
349.7966°
Eccentric anomaly
349.7784°
Mean motion
3.68519 °/min
Orbital period
97.69 mins
BSTAR
0.00077523
Loading maneuver chart data...
Computing Atmospheric mass density...

Documentation

Showing up to 5 results
|